#timestamp,LO_Frequency,Hit,StdDev 
1505588415.0,286046977.2,N
1505588415.9,286046977.2,N
1505588435.8,286046975.6,Y
1505588455.6,286046991.6,P
1505588475.4,286046987.6,P
1505588495.2,286046987.8,P
1505588515.1,286046989.5,Y
1505588516.0,286046989.5,P
1505588535.8,286047004.3,P
1505588555.6,286047001.6,N
1505588575.5,286047001.6,N
1505588595.3,286047002.4,N
1505588615.1,286047001.7,N
1505588635.9,286047002.4,N
1505588655.7,286047000.6,N
1505588675.5,286047002.8,N
1505588695.4,286047000.1,N
1505588715.2,286046998.1,N
1505588735.0,286046998.3,N
1505588735.9,286046998.3,N
1505588755.8,286046996.5,N
1505588775.6,286047002.5,N
1505588795.4,286047004.0,N
1505588815.3,286047007.5,N
1505588835.1,286047007.3,N
1505588836.0,286047007.3,N
1505588855.8,286047002.2,N
1505588875.7,286047002.6,N
1505588895.5,286046999.7,N
1505588915.3,286046999.5,N
1505588935.1,286046997.6,N
1505588955.9,286046998.0,N
1505588975.7,286047001.0,N
1505588995.5,286046998.7,N
1505589015.4,286046997.0,N
1505589035.2,286046997.7,N
1505589055.0,286046999.3,N
1505589055.9,286046999.3,N
1505589075.8,286046995.0,N
1505589095.6,286046996.3,N
1505589115.4,286046993.3,N
1505589135.3,286046991.0,N
1505589155.1,286046990.7,N
1505589156.0,286046990.7,N
1505589175.8,286046996.0,N
1505589195.7,286046999.0,N
1505589215.5,286047003.2,N
1505589235.3,286047008.2,N
1505589255.1,286047010.7,N
1505589275.9,286047009.9,N
1505589295.7,286047014.6,N
1505589315.5,286047017.0,N
1505589335.4,286047015.1,N
1505589355.2,286047012.8,N
1505589375.0,286047017.0,N
1505589375.9,286047017.0,N
1505589395.8,286047015.9,N
1505589415.6,286047019.9,N
1505589435.4,286047017.8,N
1505589455.3,286047021.1,N
1505589475.1,286047021.2,N
1505589476.0,286047021.2,N
1505589495.8,286047021.0,N
1505589515.7,286047019.3,N
1505589535.5,286047018.5,N
1505589555.3,286047019.0,N
1505589575.2,286047021.0,N
1505589595.9,286047029.5,N
1505589615.7,286047025.3,N
1505589635.5,286047026.6,N
1505589655.4,286047024.7,N
1505589675.2,286047023.3,N
1505589695.0,286047027.4,N
1505589696.0,286047027.4,Y
1505589715.8,286047013.9,P
1505589735.6,286047012.5,P
1505589755.4,286047013.4,P
1505589775.3,286047011.3,Y
1505589795.1,286046995.2,P
1505589815.8,286046997.4,N
1505589835.7,286046995.8,N
1505589855.5,286046999.3,N
1505589875.3,286047001.1,N
1505589895.2,286047002.1,N
1505589915.9,286046998.8,N
1505589935.7,286047002.2,N
1505589955.6,286047001.2,N
1505589975.4,286046997.0,N
1505589995.2,286047001.2,N
1505590015.1,286047001.2,N
1505590016.0,286047001.2,N
1505590035.8,286046995.0,N
1505590055.6,286046994.3,N
1505590075.5,286046993.0,N
1505590095.3,286046990.1,N
1505590115.1,286046989.9,N
1505590135.8,286046989.9,N
1505590155.7,286046991.2,N
1505590175.5,286046988.4,N
1505590195.3,286046988.3,N
1505590215.2,286046984.0,N
1505590235.9,286046986.0,N
1505590255.7,286046983.7,N
1505590275.6,286046984.7,N
1505590295.4,286046980.9,N
1505590315.2,286046981.9,N
1505590335.1,286046977.6,N
1505590336.0,286046977.6,N
1505590355.8,286046978.6,N
1505590375.6,286046978.7,N
1505590395.5,286046977.4,N
1505590415.3,286046980.2,N
1505590435.1,286046976.2,N
1505590455.8,286046974.9,N
1505590475.7,286046975.2,N
1505590495.5,286046974.6,N
1505590515.3,286046974.7,N
1505590535.2,286046975.7,N
1505590555.9,286046979.6,N
1505590575.7,286046980.6,N
1505590595.6,286046980.7,N
1505590615.4,286046979.4,Y
1505590635.2,286046995.5,P
1505590655.1,286046994.4,N
1505590656.0,286046994.4,N
1505590675.8,286046990.9,N
1505590695.6,286046990.5,N
1505590715.5,286046995.5,N
1505590735.3,286046994.5,N
1505590755.1,286046995.3,N
1505590775.9,286046997.3,N
1505590795.7,286046998.2,N
1505590815.5,286046998.0,N
1505590835.3,286046997.7,N
1505590855.2,286046997.3,N
1505590875.0,286046993.3,N
1505590875.9,286046993.3,N
1505590895.7,286046994.7,N
1505590915.6,286046993.2,N
1505590935.4,286046989.8,N
1505590955.2,286046987.7,Y
1505590975.1,286046994.9,P
1505590976.0,286046994.9,P
1505590995.8,286046998.8,P
1505591015.6,286046998.6,N
1505591035.5,286046996.7,N
1505591055.3,286046996.1,N
1505591075.1,286046994.5,Y
1505591095.9,286046998.7,P
1505591115.7,286046997.7,N
1505591135.5,286046997.6,N
1505591155.4,286046997.9,N
1505591175.2,286046995.3,Y
1505591195.0,286046995.4,P
1505591195.9,286046995.4,P
1505591215.8,286046994.2,P
1505591235.6,286046995.3,Y
1505591255.4,286047003.2,P
1505591275.3,286047006.6,N
1505591295.1,286047013.7,N
1505591315.8,286047017.3,N
1505591335.7,286047021.8,N
1505591355.5,286047023.1,N
1505591375.3,286047020.7,N
1505591395.2,286047023.8,N
1505591415.9,286047026.1,N
1505591435.7,286047028.8,N
1505591455.6,286047030.5,Y
1505591475.4,286047014.7,P
1505591495.2,286047013.8,P
1505591515.1,286047014.5,P
1505591516.0,286047014.5,Y
1505591535.8,286046998.4,P
1505591555.6,286046998.1,N
1505591575.5,286047002.0,N
1505591595.3,286047001.6,N
1505591615.1,286047004.0,N
1505591635.9,286047002.2,N
1505591655.7,286047003.9,N
1505591675.5,286047005.6,N
1505591695.4,286047003.1,N
1505591715.2,286047007.2,N
1505591735.0,286047010.5,N
1505591735.9,286047010.5,N
1505591755.7,286047007.3,N
1505591775.6,286047005.0,N
1505591795.4,286047004.6,N
1505591815.2,286047006.8,N
1505591835.1,286047007.2,N
1505591836.0,286047007.2,N
1505591855.8,286047004.6,N
1505591875.6,286047005.0,N
1505591895.5,286047005.0,N
1505591915.3,286047004.7,N
1505591935.1,286047009.2,N
1505591955.9,286047006.5,N
1505591975.7,286047009.6,N
1505591995.5,286047007.9,N
